Stations météo

réclame
Mon MeteoGroup
Bournemouth Airport, Grande-Bretagne (3862): Température de l'air & dewpoint: 11.08.2019 14:00:00 - 17.08.2019 14:00:00 (BST)Bournemouth Airport, Grande-Bretagne (3862): Température de l'air -20cm & Température de l'air -100cm: 11.08.2019 14:00:00 - 17.08.2019 14:00:00 (BST)Bournemouth Airport, Grande-Bretagne (3862): Vitesse du vent & gusts: 11.08.2019 14:00:00 - 17.08.2019 14:00:00 (BST)Bournemouth Airport, Grande-Bretagne (3862): Direction du vent: 11.08.2019 14:00:00 - 17.08.2019 14:00:00 (BST)Bournemouth Airport, Grande-Bretagne (3862): reduced air pressure: 11.08.2019 14:00:00 - 17.08.2019 14:00:00 (BST)Bournemouth Airport, Grande-Bretagne (3862): visibility: 11.08.2019 14:00:00 - 17.08.2019 14:00:00 (BST)Bournemouth Airport, Grande-Bretagne (3862): Ensoleillement: 11.08.2019 14:00:00 - 17.08.2019 14:00:00 (BST)Bournemouth Airport, Grande-Bretagne (3862): Quantités de précipitations: 11.08.2019 14:00:00 - 17.08.2019 14:00:00 (BST)
Date & Time tt [°C] td [°C] tt -20cm [°C] tt -100cm [°C] ff [km/h] ff [knt] fx [km/h] fx [knt] dd ppp [hPa] vv [km] sd [min] rr [mm]
17.08.2019 14:00:00 20,9 14,8 - - 21 11 - - WSW 1006,0 10 42 0,0
17.08.2019 13:00:00 20,4 14,7 - - 21 11 - - WSW 1006,1 26 36 0,0
17.08.2019 12:00:00 19,5 14,1 - - 22 12 - - W 1006,2 29 30 0,0
17.08.2019 11:00:00 17,5 14,3 - - 22 12 - - WSW 1006,1 10 0 0,0
17.08.2019 10:00:00 17,5 14,2 17,5 16,9 18 10 - - WSW 1006,0 10 6 0,0
17.08.2019 09:00:00 16,8 14,1 - - 16 9 - - WSW 1005,5 10 18 0,0
17.08.2019 08:00:00 16,3 14,5 - - 16 9 - - WSW 1005,3 10 54 0,0
17.08.2019 07:00:00 15,0 13,7 - - 15 8 - - SW 1004,9 10 18 0,0
17.08.2019 06:00:00 14,3 13,2 - - 5 3 - - SW 1004,8 10 0 0,0
17.08.2019 05:00:00 15,8 14,7 - - 15 8 - - WSW 1004,7 23 0 0,0
17.08.2019 04:00:00 16,6 15,4 - - 16 9 - - WSW 1004,4 26 0 0,0
17.08.2019 03:00:00 17,2 16,3 - - 18 10 - - WSW 1004,1 30 0 0,0
17.08.2019 02:00:00 17,6 17,0 - - 21 11 - - WSW 1004,3 16 0 0,0
17.08.2019 01:00:00 17,8 17,0 - - 22 12 - - WSW 1004,1 40 - 0,0
17.08.2019 00:00:00 17,8 17,3 - - 24 13 - - WSW 1004,3 10 0 0,4
16.08.2019 23:00:00 17,4 16,9 - - 21 11 48 26 SW 1004,6 5 0 1,2
16.08.2019 22:00:00 17,3 16,9 - - 28 15 52 28 SW 1005,1 2,0 0 2,0
16.08.2019 21:00:00 17,1 16,6 - - 28 15 52 28 SW 1005,4 1,5 0 1,2
16.08.2019 20:00:00 16,9 16,3 - - 29 16 55 30 SSW 1005,9 2,9 0 1,6
16.08.2019 19:00:00 16,9 16,0 - - 28 15 52 28 SSW 1006,6 3,0 0 3,6
16.08.2019 18:00:00 17,0 15,7 - - 26 14 48 26 SSW 1007,4 3,8 0 0,4
16.08.2019 17:00:00 16,8 15,6 - - 29 16 54 29 SSW 1008,3 6 0 1,6
16.08.2019 16:00:00 16,7 15,4 - - 28 15 - - SSW 1009,1 6 0 2,0
16.08.2019 15:00:00 16,8 15,4 - - 26 14 46 25 SSW 1010,2 6 0 0,8
16.08.2019 14:00:00 16,4 15,0 - - 24 13 - - SSW 1011,1 14 0 0,6
16.08.2019 13:00:00 17,1 14,1 - - 26 14 - - SSW 1011,5 10 0 0,0
16.08.2019 12:00:00 17,6 14,9 - - 24 13 - - SSW 1011,9 29 0 0,4
16.08.2019 11:00:00 17,3 13,2 - - 21 11 - - SSW 1012,9 10 0 0,0
16.08.2019 10:00:00 17,5 14,0 17,7 17,0 22 12 - - SSW 1013,7 10 0 0,0
16.08.2019 09:00:00 17,5 13,9 - - 18 10 - - SW 1014,0 10 0 0,0
16.08.2019 08:00:00 17,2 14,4 - - 21 11 - - SW 1014,6 10 0 0,0
16.08.2019 07:00:00 17,0 14,5 - - 21 11 - - SSW 1014,7 10 0 0,0
16.08.2019 06:00:00 16,5 13,9 - - 13 7 - - SSW 1015,4 8 0 0,0
16.08.2019 05:00:00 16,4 14,6 - - 9 5 - - SSW 1015,9 6 0 0,0
16.08.2019 04:00:00 16,4 14,9 - - 9 5 - - SW 1016,4 5 0 0,0
16.08.2019 03:00:00 12,3 11,6 - - 2 1 - - SSE 1016,9 22 0 0,0
16.08.2019 02:00:00 11,5 10,9 - - 2 1 - - NW 1017,4 23 0 0,0
16.08.2019 01:00:00 11,3 10,4 - - 2 1 - - ENE 1017,5 20 - 0,0
16.08.2019 00:00:00 11,3 9,5 - - 5 3 - - W 1018,1 10 0 0,0
15.08.2019 23:00:00 13,9 11,5 - - 2 1 - - NE 1018,4 25 0 0,0
15.08.2019 22:00:00 16,3 11,6 - - 4 2 - - W 1018,0 10 0 0,0
15.08.2019 21:00:00 15,4 11,0 - - 9 5 - - W 1017,7 10 6 0,0
15.08.2019 20:00:00 19,3 10,7 - - 16 9 - - WNW 1017,0 10 60 0,0
15.08.2019 19:00:00 20,7 11,2 - - 21 11 - - W 1017,0 10 36 0,0
15.08.2019 18:00:00 20,4 10,1 - - 26 14 - - WNW 1016,8 10 0 0,0
15.08.2019 17:00:00 20,9 10,7 - - 24 13 - - WNW 1016,2 10 18 0,0
15.08.2019 16:00:00 22,6 10,8 - - 26 14 - - WNW 1015,5 10 60 0,0
15.08.2019 15:00:00 22,4 11,2 - - 28 15 48 26 WNW 1015,4 10 54 0,0
15.08.2019 14:00:00 21,8 11,8 - - 26 14 - - WNW 1015,0 10 36 0,0
15.08.2019 13:00:00 20,4 11,5 - - 28 15 46 25 WNW 1014,7 10 36 0,0
15.08.2019 12:00:00 20,5 12,3 - - 29 16 48 26 WNW 1014,1 28 54 0,0
15.08.2019 11:00:00 19,6 12,7 - - 29 16 50 27 WNW 1013,6 10 48 0,0
15.08.2019 10:00:00 19,3 13,1 17,7 17,0 29 16 46 25 WNW 1013,1 10 60 0,0
15.08.2019 09:00:00 18,2 13,8 - - 26 14 - - WNW 1012,8 30 54 0,0
15.08.2019 08:00:00 17,1 14,1 - - 21 11 - - W 1012,1 10 30 0,0
15.08.2019 07:00:00 15,5 13,7 - - 18 10 - - W 1011,6 10 0 0,0
15.08.2019 06:00:00 14,9 13,3 - - 18 10 - - W 1011,0 8 0 0,0
15.08.2019 05:00:00 15,2 13,7 - - 13 7 - - W 1010,4 8 0 0,0
15.08.2019 04:00:00 15,3 14,2 - - 11 6 - - WSW 1010,4 4,7 0 0,0
15.08.2019 03:00:00 15,4 14,0 - - 13 7 - - WSW 1010,4 5 0 0,0
15.08.2019 02:00:00 15,6 14,3 - - 11 6 - - W 1010,3 8 0 0,0
15.08.2019 01:00:00 16,5 15,1 - - 13 7 - - WSW 1010,1 7 - 0,0
15.08.2019 00:00:00 17,3 15,5 - - 21 11 - - WSW 1009,8 8 0 0,0
14.08.2019 23:00:00 17,3 16,0 - - 16 9 - - WSW 1009,3 10 0 0,0
14.08.2019 22:00:00 17,2 16,0 - - 16 9 - - WSW 1009,0 9 0 0,0
14.08.2019 21:00:00 17,4 16,3 - - 18 10 - - WSW 1008,8 4,2 0 0,0
14.08.2019 20:00:00 17,9 16,9 - - 15 8 - - WSW 1008,6 10 0 0,0
14.08.2019 19:00:00 18,0 16,9 - - 16 9 - - SW 1008,5 10 0 0,0
14.08.2019 18:00:00 18,0 17,3 - - 18 10 - - SW 1008,7 10 0 0,0
14.08.2019 17:00:00 17,2 16,7 - - 24 13 - - SW 1009,2 5 0 0,2
14.08.2019 16:00:00 16,7 16,2 - - 22 12 - - SW 1010,0 2,7 0 0,6
14.08.2019 15:00:00 16,4 15,8 - - 24 13 - - SSW 1010,7 2,7 0 0,2
14.08.2019 14:00:00 16,5 15,9 - - 28 15 - - SSW 1011,3 2,5 0 0,6
14.08.2019 13:00:00 16,2 15,4 - - 22 12 - - SSW 1011,9 2,0 0 0,4
14.08.2019 12:00:00 16,1 15,2 - - 28 15 - - SSW 1012,4 9 0 0,6
14.08.2019 11:00:00 15,5 14,1 - - 18 10 - - S 1013,0 2,5 0 0,4
14.08.2019 10:00:00 14,8 13,4 18,0 17,2 21 11 - - S 1013,5 8 0 0,2
14.08.2019 09:00:00 14,7 13,6 - - 21 11 - - SSW 1014,3 4,0 0 0,6
14.08.2019 08:00:00 15,3 13,2 - - 15 8 - - SSW 1014,7 25 0 0,6
14.08.2019 07:00:00 16,1 14,0 - - 16 9 - - SSW 1014,7 24 0 0,0
14.08.2019 06:00:00 16,0 14,6 - - 15 8 - - SSW 1015,1 19 0 0,0
14.08.2019 05:00:00 15,5 14,1 - - 13 7 - - SSW 1015,7 10 0 0,4
14.08.2019 04:00:00 15,3 13,7 - - 9 5 - - SSW 1016,4 20 0 0,0
14.08.2019 03:00:00 14,9 13,7 - - 5 3 - - S 1016,9 13 0 0,0
14.08.2019 02:00:00 15,1 13,6 - - 5 3 - - S 1017,3 24 0 0,0
14.08.2019 01:00:00 15,1 13,9 - - 4 2 - - S 1017,6 22 - 0,0
14.08.2019 00:00:00 15,3 13,7 - - 9 5 - - SW 1017,9 22 0 0,0
13.08.2019 23:00:00 15,3 13,5 - - 11 6 - - SW 1018,2 21 0 0,0
13.08.2019 22:00:00 15,2 13,1 - - 8 4 - - SW 1018,2 10 0 0,0
13.08.2019 21:00:00 15,8 12,7 - - 9 5 - - WSW 1018,3 25 0 0,0
13.08.2019 20:00:00 16,7 12,8 - - 13 7 - - WSW 1018,4 30 0 0,0
13.08.2019 19:00:00 17,7 12,0 - - 18 10 - - WSW 1018,2 50 12 0,0
13.08.2019 18:00:00 17,5 12,2 - - 13 7 - - WSW 1018,3 10 0 0,0
13.08.2019 17:00:00 17,1 13,3 - - 11 6 - - WSW 1018,3 22 0 0,0
13.08.2019 16:00:00 18,1 12,0 - - 13 7 - - SW 1018,3 10 18 0,0
13.08.2019 15:00:00 17,6 12,1 - - 15 8 - - SSW 1018,5 35 24 0,0
13.08.2019 14:00:00 17,4 11,9 - - 5 3 - - - 1018,6 10 6 0,0
13.08.2019 13:00:00 17,7 11,7 - - 11 6 - - WNW 1018,6 10 6 0,0
13.08.2019 12:00:00 17,0 12,2 - - 9 5 - - NW 1018,8 10 6 0,2
13.08.2019 11:00:00 18,4 12,1 - - 15 8 - - W 1019,0 10 60 0,0
13.08.2019 10:00:00 16,0 12,8 18,2 17,4 15 8 - - W 1018,9 29 18 0,0
13.08.2019 09:00:00 14,0 12,6 - - 11 6 - - W 1018,7 30 0 0,0
13.08.2019 08:00:00 13,1 12,0 - - 9 5 - - W 1018,6 10 0 0,6
13.08.2019 07:00:00 12,9 12,1 - - 9 5 - - W 1018,3 10 0 0,2
13.08.2019 06:00:00 11,5 10,9 - - 8 4 - - WSW 1018,0 23 0 0,0
13.08.2019 05:00:00 9,6 8,4 - - 2 1 - - WSW 1018,0 35 0 0,0
13.08.2019 04:00:00 9,0 7,1 - - 5 3 - - W 1018,1 45 0 0,0
13.08.2019 03:00:00 9,8 8,8 - - 4 2 - - WSW 1018,4 35 0 0,0
13.08.2019 02:00:00 9,3 6,6 - - 5 3 - - WSW 1018,6 35 0 0,0
13.08.2019 01:00:00 9,2 7,0 - - 5 3 - - W 1018,9 40 - 0,0
13.08.2019 00:00:00 9,6 6,7 - - 8 4 - - W 1018,9 10 0 0,0
12.08.2019 23:00:00 11,1 6,2 - - 8 4 - - W 1018,8 45 0 0,0
12.08.2019 22:00:00 11,8 5,8 - - 9 5 - - W 1018,7 10 0 0,0
12.08.2019 21:00:00 14,4 6,1 - - 11 6 - - NW 1018,2 10 12 0,0
12.08.2019 20:00:00 16,8 5,2 - - 16 9 - - NW 1017,3 10 60 0,0
12.08.2019 19:00:00 18,5 7,8 - - 24 13 - - NW 1016,6 10 60 0,0
12.08.2019 18:00:00 19,4 7,1 - - 26 14 - - NW 1015,9 35 54 0,0
12.08.2019 17:00:00 20,1 5,7 - - 22 12 - - NW 1015,6 10 54 0,0
12.08.2019 16:00:00 20,8 5,7 - - 28 15 - - WNW 1015,4 10 42 0,0
12.08.2019 15:00:00 20,1 8,8 - - 21 11 - - WNW 1015,3 10 12 0,0
12.08.2019 14:00:00 18,5 10,6 - - 16 9 - - NNW 1015,1 5 18 0,0
12.08.2019 13:00:00 17,6 12,2 - - 11 6 - - ENE 1015,0 45 6 0,0
12.08.2019 12:00:00 16,5 9,9 - - 21 11 - - NW 1015,0 1,5 18 0,0
12.08.2019 11:00:00 17,2 12,3 - - 8 4 - - N 1014,8 50 0 0,0
12.08.2019 10:00:00 17,0 12,0 18,7 17,5 8 4 - - N 1014,7 10 36 0,0
12.08.2019 09:00:00 15,2 12,6 - - 9 5 - - NNW 1014,5 9 0 0,0
12.08.2019 08:00:00 14,2 13,1 - - 9 5 - - W 1014,3 7 0 0,0
12.08.2019 07:00:00 13,1 12,4 - - 4 2 - - SW 1013,9 20 0 0,0
12.08.2019 06:00:00 12,6 11,8 - - 5 3 - - NNW 1013,8 35 0 0,0
12.08.2019 05:00:00 12,8 12,3 - - 2 1 - - SW 1013,6 21 0 0,0
12.08.2019 04:00:00 12,7 12,1 - - 2 1 - - WNW 1013,8 30 0 0,0
12.08.2019 03:00:00 12,0 11,3 - - 8 4 - - W 1013,7 30 0 0,0
12.08.2019 02:00:00 13,1 12,5 - - 5 3 - - W 1014,0 30 0 0,0
12.08.2019 01:00:00 13,4 12,6 - - 5 3 - - WSW 1014,1 27 - 0,0
12.08.2019 00:00:00 13,5 12,5 - - 8 4 - - WSW 1014,0 30 0 0,0
11.08.2019 23:00:00 13,7 12,3 - - 8 4 - - WSW 1014,0 10 0 0,0
11.08.2019 22:00:00 15,2 13,4 - - 9 5 - - WSW 1013,5 10 0 0,0
11.08.2019 21:00:00 16,2 13,7 - - 18 10 - - WSW 1013,3 24 0 0,0
11.08.2019 20:00:00 17,5 13,6 - - 18 10 - - WSW 1012,9 25 42 0,0
11.08.2019 19:00:00 18,5 12,9 - - 24 13 - - SW 1012,3 30 60 0,0
11.08.2019 18:00:00 19,7 12,4 - - 26 14 - - WSW 1012,3 10 60 0,0
11.08.2019 17:00:00 19,9 11,7 - - 26 14 48 26 WSW 1012,0 35 54 0,0
11.08.2019 16:00:00 20,8 12,7 - - 29 16 46 25 WSW 1011,8 10 60 0,0
11.08.2019 15:00:00 19,9 12,6 - - 26 14 46 25 WSW 1011,6 30 60 0,0
11.08.2019 14:00:00 20,7 13,4 - - 28 15 48 26 SW 1012,0 10 54 0,0

tt = Température de l'air
td = dewpoint
tt -20cm = Température de l'air -20cm
tt -100cm = Température de l'air -100cm
ff = Vitesse du vent
fx = gusts
dd = Direction du vent
ppp = reduced air pressure
vv = visibility
sd = Ensoleillement
rr = Quantités de précipitations

stations d'obs. à proximité